STARLINK-34252, 64330

Orbit data source: Space-Track

STARLINK-34252, 64330 is a payload satellite owned by SpaceX/Seattle (US) in LEO that was launched on Tue, 10 Jun 2025 UTC via an FALCON 9 launch vehicle from the Air Force Eastern Test Range (AFETR). Payload-class satellites include a variety of spacecraft equipped with specific instruments for various scientific and technological missions. These include communications satellites like Starlink; space stations such as the ISS; scientific satellites like the Hubble; Earth observation satellites from companies like Planet Labs, Umbra, and HawkEye 360; GPS; miniature CubeSats for education and research; and military/defense satellites.

Loading next visibility...
Identifier
64330, 2025-124P
Orbit
LEO
Country
Flag of USUS
Related business
Manufacturer
SpaceX/Seattle
Mission
Operational Commercial Communications
Bus & Motor
STARLINK V2MO, Unknown motor
Mass
575 kg wet, ~530 kg dry
Launch date (UTC)
2025-06-10 (3 months ago)
Launch vehicle
FALCON 9
Launch site
Air Force Eastern Test Range (AFETR)
Object type
Payload
Rocket body
Debris
Shape & HBR
Box + 1 Pan, 14.5 m
Radar Cross Section
41.120 m², Large (>1 m²)

Expand to show TLE details & history
Last TLE update: 5 hours ago

TLE from 5 hours ago
0 STARLINK-34252
1 64330U 25124P   25242.92633177  .00035918  00000-0  13073-2 0  9995
2 64330  42.9997 119.2196 0001461 271.8860  88.1825 15.27607915 12605
Epoch: 2025-08-30T22:13Z
TLE epoch observation values (Epoch: 2025-08-30T22:13:55.064Z)
Latitude
0.00001°
Longitude
166.38656°
Altitude
482.709 km
Speed
7.626 km/s
True Right ascension
07h 56m 52s
True Declination
0° 00' 00"
Sunlit
Object was in daylight at epoch
Visualization orbit readout
Latitude
Unknown
Longitude
Unknown
Altitude
Unknown
Speed
Unknown
Apparent Right ascension
Unknown
Apparent Declination
Unknown
Sunlit
N/A
Visualization observer readout
Local Sidereal Time
19:08:25
Azimuth
Unknown
Elevation
Unknown
Doppler factor
Unknown
Orbital elements
Apogee altitude
485.913 km
Perigee altitude
483.908 km
Semi-major axis
6,863.048 km
Eccentricity
0.00015
Inclination
42.9997°
RAAN
119.2196°
Arg. of periapsis
271.886°
True anomaly
88.19923°
Mean anomaly
88.1825°
Eccentric anomaly
88.19087°
Mean motion
3.8174 °/min
Orbital period
94.31 mins
BSTAR
0.0013073
Loading maneuver chart data...
Computing Atmospheric mass density...
Loading historical data...
Loading historical data...
Loading historical data...
Loading historical data...
Loading historical data...
Loading historical data...
Loading historical data...

Documentation

Showing up to 5 results
|